| time (UTC) | temp C | wind direction | speed KPH | gust KPH | rain 1hr cm | rain 24hr cm | rain mn cm | humidity % | barometer mb |
| 20260504190414 | 14 | 359 | 20.9 | 27.4 | 0.00 | 0.00 | 0.00 | 30 | 1018.1 |
| 20260504185911 | 14 | 325 | 14.5 | 22.5 | 0.00 | 0.00 | 0.00 | 31 | 1018.2 |
| 20260504185409 | 15 | 8 | 20.9 | 29.0 | 0.00 | 0.00 | 0.00 | 29 | 1018.4 |
| 20260504184904 | 15 | 320 | 6.4 | 20.9 | 0.00 | 0.00 | 0.00 | 32 | 1018.2 |
| 20260504184400 | 15 | 345 | 20.9 | 29.0 | 0.00 | 0.00 | 0.00 | 31 | 1018.4 |
| 20260504183856 | 15 | 353 | 14.5 | 29.0 | 0.00 | 0.00 | 0.00 | 31 | 1018.1 |
| 20260504183354 | 15 | 354 | 14.5 | 22.5 | 0.00 | 0.00 | 0.00 | 31 | 1018.4 |
| 20260504182851 | 15 | 350 | 9.7 | 24.1 | 0.00 | 0.00 | 0.00 | 33 | 1018.4 |
| 20260504182349 | 15 | 298 | 19.3 | 27.4 | 0.00 | 0.00 | 0.00 | 31 | 1018.4 |
| 20260504181845 | 13 | 333 | 17.7 | 33.8 | 0.00 | 0.00 | 0.00 | 33 | 1018.4 |
| 20260504181343 | 14 | 338 | 11.3 | 25.7 | 0.00 | 0.00 | 0.00 | 34 | 1018.5 |
| 20260504180842 | 14 | 2 | 9.7 | 16.1 | 0.00 | 0.00 | 0.00 | 33 | 1018.5 |
| 20260504180339 | 14 | 328 | 8.0 | 27.4 | 0.00 | 0.00 | 0.00 | 36 | 1018.5 |
| 20260504175837 | 14 | 12 | 16.1 | 27.4 | 0.00 | 0.00 | 0.00 | 36 | 1018.4 |
| 20260504175334 | 13 | 308 | 16.1 | 25.7 | 0.00 | 0.00 | 0.00 | 35 | 1018.5 |
| 20260504174832 | 13 | 4 | 9.7 | 20.9 | 0.00 | 0.00 | 0.00 | 37 | 1018.6 |
| 20260504174329 | 13 | 326 | 11.3 | 22.5 | 0.00 | 0.00 | 0.00 | 37 | 1018.6 |
| 20260504173826 | 13 | 315 | 14.5 | 22.5 | 0.00 | 0.00 | 0.00 | 37 | 1018.6 |
| 20260504173323 | 13 | 350 | 12.9 | 17.7 | 0.00 | 0.00 | 0.00 | 36 | 1018.5 |
| 20260504172820 | 13 | 338 | 19.3 | 20.9 | 0.00 | 0.00 | 0.00 | 38 | 1018.7 |
| 20260504172317 | 13 | 339 | 16.1 | 24.1 | 0.00 | 0.00 | 0.00 | 36 | 1018.6 |
| 20260504171812 | 14 | 323 | 8.0 | 20.9 | 0.00 | 0.00 | 0.00 | 37 | 1018.6 |
| 20260504171310 | 12 | 0 | 16.1 | 29.0 | 0.00 | 0.00 | 0.00 | 38 | 1018.6 |
| 20260504170807 | 12 | 2 | 11.3 | 22.5 | 0.00 | 0.00 | 0.00 | 41 | 1018.5 |
| 20260504170304 | 13 | 2 | 14.5 | 17.7 | 0.00 | 0.00 | 0.00 | 41 | 1018.5 |
| 20260504160222 | 11 | 330 | 6.4 | 17.7 | 0.00 | 0.00 | 0.00 | 49 | 1018.7 |
| 20260504150647 | 10 | 289 | 8.0 | 17.7 | 0.00 | 0.00 | 0.00 | 56 | 1019.0 |
| 20260504150144 | 9 | 290 | 11.3 | 20.9 | 0.00 | 0.00 | 0.00 | 58 | 1018.9 |
| 20260504141113 | 8 | 297 | 11.3 | 17.7 | 0.00 | 0.00 | 0.00 | 62 | 1018.9 |
| 20260504140610 | 8 | 316 | 8.0 | 14.5 | 0.00 | 0.00 | 0.00 | 62 | 1018.9 |
| 20260504140105 | 8 | 275 | 4.8 | 9.7 | 0.00 | 0.00 | 0.00 | 63 | 1018.9 |
| 20260504130534 | 7 | 278 | 6.4 | 11.3 | 0.00 | 0.00 | 0.00 | 64 | 1018.9 |
| 20260504110421 | 7 | 296 | 0.0 | 0.0 | 0.00 | 0.00 | 0.00 | 62 | 1019.1 |
| 20260504100338 | 7 | 343 | 0.0 | 1.6 | 0.00 | 0.00 | 0.00 | 62 | 1019.1 |
| 20260504081731 | 10 | 49 | 6.4 | 12.9 | 0.00 | 0.00 | 0.00 | 51 | 1018.4 |
| 20260504081228 | 10 | 26 | 6.4 | 11.3 | 0.00 | 0.00 | 0.00 | 50 | 1018.4 |
| 20260504080724 | 10 | 15 | 1.6 | 6.4 | 0.00 | 0.00 | 0.00 | 50 | 1018.1 |
| 20260504080221 | 10 | 93 | 3.2 | 9.7 | 0.00 | 0.00 | 0.00 | 49 | 1018.0 |
| 20260504070148 | 11 | 30 | 8.0 | 12.9 | 0.00 | 0.00 | 0.00 | 44 | 1016.3 |
| 20260504060109 | 12 | 54 | 6.4 | 11.3 | 0.00 | 0.00 | 0.00 | 38 | 1014.6 |
| 20260504050537 | 13 | 49 | 19.3 | 29.0 | 0.00 | 0.00 | 0.00 | 38 | 1013.4 |
| 20260504045531 | 13 | 37 | 9.7 | 20.9 | 0.00 | 0.00 | 0.00 | 38 | 1012.9 |
| 20260504045026 | 13 | 35 | 0.0 | 1.6 | 0.00 | 0.00 | 0.00 | 40 | 1012.6 |
| 20260504044524 | 13 | 65 | 0.0 | 3.2 | 0.00 | 0.00 | 0.00 | 39 | 1012.4 |
| 20260504044021 | 13 | 330 | 0.0 | 3.2 | 0.00 | 0.00 | 0.00 | 39 | 1012.4 |
| 20260504043518 | 13 | 52 | 0.0 | 3.2 | 0.00 | 0.00 | 0.00 | 38 | 1012.1 |
| 20260504043015 | 13 | 326 | 0.0 | 6.4 | 0.00 | 0.00 | 0.00 | 38 | 1012.2 |
| 20260504042512 | 13 | 346 | 0.0 | 4.8 | 0.00 | 0.00 | 0.00 | 38 | 1012.2 |
| 20260504042009 | 14 | 347 | 0.0 | 1.6 | 0.00 | 0.00 | 0.00 | 37 | 1012.1 |
| 20260504041505 | 15 | 34 | 0.0 | 1.6 | 0.00 | 0.00 | 0.00 | 37 | 1011.8 |
| 20260504041001 | 15 | 44 | 0.0 | 1.6 | 0.00 | 0.00 | 0.00 | 36 | 1011.9 |
| 20260504040458 | 15 | 8 | 1.6 | 4.8 | 0.00 | 0.00 | 0.00 | 36 | 1011.6 |
| 20260504035954 | 15 | 1 | 1.6 | 6.4 | 0.00 | 0.00 | 0.00 | 36 | 1011.7 |
| 20260504035452 | 15 | 349 | 0.0 | 1.6 | 0.00 | 0.00 | 0.00 | 36 | 1011.2 |
| 20260504034948 | 15 | 345 | 0.0 | 3.2 | 0.00 | 0.00 | 0.00 | 36 | 1011.4 |
| 20260504034446 | 15 | 356 | 0.0 | 4.8 | 0.00 | 0.00 | 0.00 | 35 | 1011.1 |
| 20260504033943 | 15 | 62 | 3.2 | 9.7 | 0.00 | 0.00 | 0.00 | 34 | 1011.1 |
| 20260504033441 | 16 | 25 | 0.0 | 11.3 | 0.00 | 0.00 | 0.00 | 34 | 1010.9 |
| 20260504032938 | 16 | 345 | 4.8 | 11.3 | 0.00 | 0.00 | 0.00 | 33 | 1011.0 |
| 20260504032434 | 16 | 39 | 4.8 | 9.7 | 0.00 | 0.00 | 0.00 | 32 | 1010.7 |
| 20260504031931 | 16 | 21 | 4.8 | 11.3 | 0.00 | 0.00 | 0.00 | 31 | 1010.7 |
| 20260504031428 | 16 | 60 | 0.0 | 12.9 | 0.00 | 0.00 | 0.00 | 31 | 1010.6 |
| 20260504030925 | 15 | 29 | 0.0 | 3.2 | 0.00 | 0.00 | 0.00 | 30 | 1010.3 |
| 20260504030422 | 16 | 13 | 0.0 | 0.0 | 0.00 | 0.00 | 0.00 | 28 | 1010.3 |
| 20260504025917 | 16 | 25 | 0.0 | 0.0 | 0.00 | 0.00 | 0.00 | 28 | 1010.0 |
| 20260504025415 | 16 | 326 | 1.6 | 6.4 | 0.00 | 0.00 | 0.00 | 27 | 1010.3 |
| 20260504024912 | 16 | 338 | 0.0 | 1.6 | 0.00 | 0.00 | 0.00 | 27 | 1010.2 |
| 20260504024409 | 16 | 347 | 0.0 | 1.6 | 0.00 | 0.00 | 0.00 | 26 | 1010.2 |
| 20260504023906 | 16 | 352 | 0.0 | 1.6 | 0.00 | 0.00 | 0.00 | 26 | 1010.2 |
| 20260504023402 | 17 | 325 | 0.0 | 0.0 | 0.00 | 0.00 | 0.00 | 26 | 1010.3 |
| 20260504022857 | 17 | 345 | 0.0 | 0.0 | 0.00 | 0.00 | 0.00 | 25 | 1010.2 |
| 20260504022354 | 18 | 306 | 0.0 | 3.2 | 0.00 | 0.00 | 0.00 | 24 | 1010.3 |
| 20260504021851 | 18 | 311 | 0.0 | 3.2 | 0.00 | 0.00 | 0.00 | 25 | 1010.2 |
| 20260504021348 | 18 | 358 | 0.0 | 0.0 | 0.00 | 0.00 | 0.00 | 25 | 1010.0 |
| 20260504020845 | 19 | 325 | 0.0 | 0.0 | 0.00 | 0.00 | 0.00 | 24 | 1010.0 |
| 20260504020342 | 20 | 356 | 0.0 | 1.6 | 0.00 | 0.00 | 0.00 | 23 | 1010.2 |
| 20260504015838 | 20 | 311 | 0.0 | 3.2 | 0.00 | 0.00 | 0.00 | 23 | 1010.2 |
| 20260504015334 | 20 | 3 | 1.6 | 4.8 | 0.00 | 0.00 | 0.00 | 22 | 1010.2 |
| 20260504014831 | 21 | 38 | 1.6 | 6.4 | 0.00 | 0.00 | 0.00 | 22 | 1010.2 |
| 20260504014326 | 22 | 304 | 0.0 | 9.7 | 0.00 | 0.00 | 0.00 | 22 | 1010.0 |
| 20260504013825 | 22 | 336 | 1.6 | 9.7 | 0.00 | 0.00 | 0.00 | 21 | 1010.2 |
| 20260504013322 | 22 | 9 | 9.7 | 12.9 | 0.00 | 0.00 | 0.00 | 21 | 1010.2 |
| 20260504012819 | 22 | 317 | 3.2 | 14.5 | 0.00 | 0.00 | 0.00 | 21 | 1010.0 |
| 20260504012316 | 22 | 336 | 4.8 | 9.7 | 0.00 | 0.00 | 0.00 | 21 | 1010.0 |
| 20260504011814 | 22 | 0 | 3.2 | 6.4 | 0.00 | 0.00 | 0.00 | 20 | 1009.8 |
| 20260504011310 | 23 | 353 | 1.6 | 6.4 | 0.00 | 0.00 | 0.00 | 20 | 1010.0 |
| 20260504010806 | 23 | 338 | 3.2 | 9.7 | 0.00 | 0.00 | 0.00 | 20 | 1010.0 |
| 20260504010301 | 23 | 323 | 4.8 | 14.5 | 0.00 | 0.00 | 0.00 | 19 | 1010.2 |
| 20260504005759 | 23 | 351 | 4.8 | 11.3 | 0.00 | 0.00 | 0.00 | 20 | 1010.2 |
| 20260504005255 | 23 | 19 | 4.8 | 9.7 | 0.00 | 0.00 | 0.00 | 19 | 1010.4 |
| 20260504004753 | 24 | 319 | 3.2 | 6.4 | 0.00 | 0.00 | 0.00 | 19 | 1010.3 |
| 20260504004250 | 24 | 345 | 0.0 | 14.5 | 0.00 | 0.00 | 0.00 | 19 | 1010.5 |
| 20260504003747 | 23 | 326 | 17.7 | 22.5 | 0.00 | 0.00 | 0.00 | 19 | 1010.4 |
| 20260504003244 | 24 | 332 | 8.0 | 14.5 | 0.00 | 0.00 | 0.00 | 18 | 1010.4 |
| 20260504002740 | 25 | 347 | 6.4 | 11.3 | 0.00 | 0.00 | 0.00 | 18 | 1010.4 |
| 20260504002237 | 24 | 344 | 9.7 | 17.7 | 0.00 | 0.00 | 0.00 | 18 | 1010.6 |
| 20260504001735 | 25 | 355 | 12.9 | 24.1 | 0.00 | 0.00 | 0.00 | 18 | 1010.7 |
| 20260504001232 | 25 | 318 | 6.4 | 11.3 | 0.00 | 0.00 | 0.00 | 18 | 1010.4 |
| 20260504000728 | 25 | 357 | 6.4 | 12.9 | 0.00 | 0.00 | 0.00 | 19 | 1010.5 |
| 20260504000226 | 25 | 304 | 8.0 | 22.5 | 0.00 | 0.00 | 0.00 | 18 | 1010.5 |
| 20260503235724 | 25 | 300 | 6.4 | 16.1 | 0.00 | 0.00 | 0.00 | 17 | 1010.5 |
| 20260503235220 | 25 | 342 | 14.5 | 17.7 | 0.00 | 0.00 | 0.00 | 17 | 1010.6 |
| 20260503234718 | 25 | 308 | 12.9 | 17.7 | 0.00 | 0.00 | 0.00 | 17 | 1010.6 |
| 20260503234216 | 25 | 285 | 4.8 | 11.3 | 0.00 | 0.00 | 0.00 | 18 | 1010.6 |
| 20260503233713 | 25 | 12 | 11.3 | 17.7 | 0.00 | 0.00 | 0.00 | 18 | 1010.8 |
| 20260503233208 | 25 | 324 | 8.0 | 16.1 | 0.00 | 0.00 | 0.00 | 18 | 1010.8 |
| 20260503232705 | 25 | 337 | 12.9 | 16.1 | 0.00 | 0.00 | 0.00 | 17 | 1010.8 |
| 20260503232203 | 25 | 280 | 11.3 | 14.5 | 0.00 | 0.00 | 0.00 | 17 | 1010.7 |
| 20260503231701 | 25 | 325 | 9.7 | 14.5 | 0.00 | 0.00 | 0.00 | 17 | 1010.8 |
| 20260503231157 | 25 | 324 | 12.9 | 17.7 | 0.00 | 0.00 | 0.00 | 18 | 1010.8 |
| 20260503230654 | 25 | 294 | 4.8 | 14.5 | 0.00 | 0.00 | 0.00 | 18 | 1010.9 |
| 20260503230151 | 25 | 13 | 19.3 | 22.5 | 0.00 | 0.00 | 0.00 | 17 | 1011.0 |
| 20260503225648 | 25 | 338 | 9.7 | 16.1 | 0.00 | 0.00 | 0.00 | 18 | 1011.0 |
| 20260503225148 | 25 | 280 | 3.2 | 14.5 | 0.00 | 0.00 | 0.00 | 18 | 1011.1 |
| 20260503224646 | 25 | 317 | 8.0 | 11.3 | 0.00 | 0.00 | 0.00 | 18 | 1011.1 |
| 20260503224143 | 25 | 337 | 6.4 | 14.5 | 0.00 | 0.00 | 0.00 | 18 | 1011.4 |
| 20260503223641 | 25 | 303 | 4.8 | 16.1 | 0.00 | 0.00 | 0.00 | 19 | 1011.4 |
| 20260503223137 | 25 | 346 | 14.5 | 24.1 | 0.00 | 0.00 | 0.00 | 18 | 1011.2 |
| 20260503222635 | 25 | 306 | 9.7 | 12.9 | 0.00 | 0.00 | 0.00 | 17 | 1011.5 |
| 20260503222132 | 24 | 356 | 9.7 | 14.5 | 0.00 | 0.00 | 0.00 | 18 | 1011.6 |
| 20260503221631 | 25 | 358 | 4.8 | 16.1 | 0.00 | 0.00 | 0.00 | 18 | 1011.6 |
| 20260503221128 | 24 | 286 | 6.4 | 20.9 | 0.00 | 0.00 | 0.00 | 19 | 1011.6 |
| 20260503220624 | 24 | 274 | 11.3 | 24.1 | 0.00 | 0.00 | 0.00 | 17 | 1011.7 |
| 20260503220121 | 24 | 268 | 9.7 | 16.1 | 0.00 | 0.00 | 0.00 | 18 | 1011.8 |
| 20260503215618 | 24 | 294 | 16.1 | 25.7 | 0.00 | 0.00 | 0.00 | 17 | 1011.6 |
| 20260503215114 | 25 | 312 | 11.3 | 22.5 | 0.00 | 0.00 | 0.00 | 18 | 1011.9 |
| 20260503214614 | 24 | 254 | 11.3 | 16.1 | 0.00 | 0.00 | 0.00 | 18 | 1011.8 |
| 20260503214109 | 25 | 302 | 8.0 | 14.5 | 0.00 | 0.00 | 0.00 | 19 | 1011.8 |
| 20260503213608 | 24 | 308 | 6.4 | 17.7 | 0.00 | 0.00 | 0.00 | 19 | 1012.2 |
| 20260503213103 | 23 | 270 | 17.7 | 22.5 | 0.00 | 0.00 | 0.00 | 19 | 1012.0 |
| 20260503212601 | 25 | 318 | 11.3 | 22.5 | 0.00 | 0.00 | 0.00 | 19 | 1012.2 |
| 20260503212059 | 24 | 274 | 11.3 | 16.1 | 0.00 | 0.00 | 0.00 | 19 | 1012.2 |
| 20260503211556 | 24 | 306 | 9.7 | 20.9 | 0.00 | 0.00 | 0.00 | 19 | 1012.3 |
| 20260503211051 | 24 | 297 | 6.4 | 9.7 | 0.00 | 0.00 | 0.00 | 18 | 1012.2 |
| 20260503210548 | 23 | 272 | 9.7 | 12.9 | 0.00 | 0.00 | 0.00 | 19 | 1012.3 |
| 20260503210043 | 24 | 299 | 6.4 | 16.1 | 0.00 | 0.00 | 0.00 | 18 | 1012.6 |
| 20260503205541 | 24 | 320 | 12.9 | 24.1 | 0.00 | 0.00 | 0.00 | 19 | 1012.4 |
| 20260503205037 | 24 | 301 | 9.7 | 17.7 | 0.00 | 0.00 | 0.00 | 19 | 1012.8 |
| 20260503204534 | 24 | 301 | 6.4 | 12.9 | 0.00 | 0.00 | 0.00 | 19 | 1012.8 |
| 20260503204031 | 24 | 325 | 6.4 | 20.9 | 0.00 | 0.00 | 0.00 | 17 | 1012.9 |
| 20260503203528 | 23 | 326 | 8.0 | 14.5 | 0.00 | 0.00 | 0.00 | 20 | 1012.9 |
| 20260503203025 | 24 | 328 | 14.5 | 17.7 | 0.00 | 0.00 | 0.00 | 16 | 1013.0 |
| 20260503202523 | 24 | 348 | 17.7 | 22.5 | 0.00 | 0.00 | 0.00 | 16 | 1013.0 |
| 20260503202021 | 24 | 328 | 11.3 | 16.1 | 0.00 | 0.00 | 0.00 | 18 | 1013.1 |
| 20260503201519 | 23 | 255 | 14.5 | 27.4 | 0.00 | 0.00 | 0.00 | 18 | 1013.1 |
| 20260503201016 | 23 | 282 | 11.3 | 22.5 | 0.00 | 0.00 | 0.00 | 20 | 1013.1 |
| 20260503200512 | 22 | 299 | 14.5 | 22.5 | 0.00 | 0.00 | 0.00 | 21 | 1013.1 |
| 20260503200009 | 22 | 266 | 12.9 | 20.9 | 0.00 | 0.00 | 0.00 | 21 | 1013.2 |
| 20260503195506 | 24 | 270 | 8.0 | 20.9 | 0.00 | 0.00 | 0.00 | 22 | 1013.2 |
| 20260503195002 | 22 | 283 | 9.7 | 20.9 | 0.00 | 0.00 | 0.00 | 21 | 1013.4 |
| 20260503194500 | 22 | 313 | 20.9 | 25.7 | 0.00 | 0.00 | 0.00 | 21 | 1013.4 |
| 20260503193955 | 22 | 282 | 6.4 | 14.5 | 0.00 | 0.00 | 0.00 | 22 | 1013.5 |
| 20260503193451 | 23 | 278 | 6.4 | 22.5 | 0.00 | 0.00 | 0.00 | 20 | 1013.8 |
| 20260503192946 | 22 | 276 | 9.7 | 17.7 | 0.00 | 0.00 | 0.00 | 22 | 1013.8 |
| 20260503192443 | 23 | 252 | 6.4 | 20.9 | 0.00 | 0.00 | 0.00 | 22 | 1014.0 |
| 20260503191938 | 22 | 305 | 14.5 | 22.5 | 0.00 | 0.00 | 0.00 | 21 | 1014.0 |
| 20260503191436 | 22 | 290 | 11.3 | 17.7 | 0.00 | 0.00 | 0.00 | 22 | 1013.9 |
| 20260503190932 | 23 | 279 | 16.1 | 24.1 | 0.00 | 0.00 | 0.00 | 20 | 1014.0 |